This demonstration page uses our WeatherBlox Daily Observations layout. Learn more.

Left ArrowRight Arrow

41.12389, -100.76542

Hourly Observations for December 4, 2016

Temp ( °F °C ) Dew Point ( °F °C ) Humidity (%) Winds ( mph kmh ) Pressure ( in mb ) Visibility ( mi km ) Precip ( " mm )
12:53 am 00:53 Partly Cloudy 25 -3.9 22 -5.6 88 88 Calm 30.04 1017 8 13 0.00 0.00
1:53 am 01:53 Clear 20 -6.7 18 -7.8 92 92 NW 7 11 30.05 1018 10 16 0.00 0.00
2:53 am 02:53 Partly Cloudy 22 -5.6 18 -7.8 85 85 NNW 7 11 30.05 1018 10 16 0.00 0.00
3:53 am 03:53 Clear 20 -6.7 16 -8.9 85 85 WNW 8 13 30.05 1018 10 16 0.00 0.00
4:53 am 04:53 Clear 19 -7.2 15 -9.4 84 84 WNW 7 11 30.06 1018 10 16 0.00 0.00
5:53 am 05:53 Mostly Clear 19 -7.2 15 -9.4 84 84 WNW 8 13 30.06 1018 10 16 0.00 0.00
6:53 am 06:53 Clear 19 -7.2 15 -9.4 84 84 W 7 11 30.06 1018 10 16 0.00 0.00
7:53 am 07:53 Sunny 19 -7.2 15 -9.4 84 84 WNW 6 9 30.08 1019 10 16 0.00 0.00
8:53 am 08:53 Sunny 24 -4.4 19 -7.2 81 81 NW 8 13 30.08 1019 10 16 0.00 0.00
9:53 am 09:53 Sunny 33 0.6 23 -5 66 66 W 10 17 30.07 1018 10 16 0.00 0.00
10:53 am 10:53 Sunny 39 3.9 22 -5.6 50 50 W 13 20 30.06 1018 10 16 0.00 0.00
11:53 am 11:53 Sunny 45 7.2 20 -6.7 37 37 WNW 9 15 30.00 1016 10 16 0.00 0.00
12:53 pm 12:53 Sunny 49 9.4 17 -8.3 28 28 WNW 14 22 29.97 1015 10 16 0.00 0.00
1:53 pm 13:53 Sunny 50 10 17 -8.3 27 27 W 12 19 29.94 1014 10 16 0.00 0.00
2:53 pm 14:53 Sunny 50 10 16 -8.9 26 26 W 16 26 29.91 1013 10 16 0.00 0.00
3:53 pm 15:53 Sunny 45 7 18 -8 34 34 WSW 7 11 29.85 1011 10 16 0.00 0.00
4:53 pm 16:53 Sunny 46 7.8 18 -7.8 32 32 SSW 3 6 29.89 1012 10 16 0.00 0.00
5:53 pm 17:53 Clear 35 1.7 18 -7.8 50 50 SSE 5 7 29.90 1012 10 16 0.00 0.00
6:53 pm 18:53 Clear 35 1.7 15 -9.4 44 44 S 10 17 29.89 1012 10 16 0.00 0.00
7:53 pm 19:53 Clear 37 2.8 15 -9.4 41 41 SSE 9 15 29.85 1011 10 16 0.00 0.00
8:53 pm 20:53 Clear 38 3.3 15 -9.4 39 39 S 12 19 29.81 1010 10 16 0.00 0.00
9:53 pm 21:53 Clear 37 2.8 16 -8.9 42 42 S 15 24 29.78 1009 10 16 0.00 0.00
10:53 pm 22:53 Clear 39 3.9 16 -8.9 39 39 SSW 15 24 29.75 1008 10 16 0.00 0.00
11:53 pm 23:53 Clear 38 3.3 16 -8.9 41 41 SW 10 17 29.74 1007 10 16 0.00 0.00

Powered by AerisWeather